Regional Weather Roundup
Issued by NWS Portland, ME

Home | Current Version | Previous Version | Text Only | Print | Product List | Glossary On
Versions: 1 2 3 4 5 6 7 8 9 10 11 12 13 14 15 16 17 18 19 20 21 22 23 24 25 26 27 28 29 30 31 32 33 34 35 36 37 38 39 40 41 42 43 44 45 46 47 48 49 50
000
ASUS41 KGYX 031010
RWRGYX
WEATHER ROUNDUP FOR MAINE AND NEW HAMPSHIRE
NATIONAL WEATHER SERVICE GRAY ME
600 AM EDT THU SEP 03 2015

MEZ002-005-006-010-012-015-018-020-021-024-026-027-029-031100-
MAINE

CITY           SKY/WX    TMP DP  RH WIND       PRES   REMARKS
PORTLAND       PTCLDY    65  65 100 W3        29.83S
SANFORD        CLEAR     61  55  82 CALM      29.84S
BAR HARBOR     CLEAR     61  61 100 CALM      29.82R
WISCASSET      PTCLDY    61  59  93 CALM      29.84R FOG
ROCKLAND       CLEAR     63  61  94 CALM      29.81R
FRYEBURG       PTCLDY    59  59 100 CALM      29.86R FOG
LEWISTONAUBURN CLEAR     61 N/A N/A CALM      29.84S
AUGUSTA        PTCLDY    68  63  84 CALM      29.84R
WATERVILLE     PTCLDY    64  61  88 CALM      29.82R
BANGOR         PTCLDY    66  64  93 W6        29.82S
GREENVILLE       N/A     67  65  93 NW7G17    29.85R
MILLINOCKET    PTCLDY    71  66  84 NW7       29.82R
HOULTON        FOG       63  61  93 CALM      29.79R VSB 3/4
PRESQUE ISLE   MOCLDY    59  55  88 CALM      29.80R VSB 1/4
FRENCHVILLE    CLEAR     62  58  86 NW15      29.81R
CARIBOU        CLEAR     66  62  87 NW9       29.79R
$$

NHZ002-005-008-009-011-012-014-031100-
NEW HAMPSHIRE

CITY           SKY/WX    TMP DP  RH WIND       PRES   REMARKS
PORTSMOUTH     MOCLDY    65  63  94 W3        29.82S FOG
ROCHESTER      CLEAR     65  62  90 CALM      29.83S
NASHUA         CLEAR     64  62  93 NW3       29.85S
MANCHESTER     PTCLDY    68  63  84 N3        29.84R
CONCORD        CLEAR     62  60  93 CALM      29.86R
LACONIA        PTCLDY    64  61  88 CALM      29.85S
PLYMOUTH       FOG       59  58  97 CALM      29.87S VSB 3/4
BERLIN         PTCLDY    58  56  93 CALM      29.90S FOG
WHITEFIELD     PTCLDY    57  56  96 CALM      29.91R FOG
JAFFREY        CLEAR     60  59  96 CALM      29.89S FOG
KEENE          CLOUDY    64  59  82 CALM      29.88S VSB<1/4
LEBANON        FOG       66  64  93 CALM      29.89R VSB 1/4
MT WASHINGTON  FOG       54  54 100 NW28        N/A  VSB 0
$$

VTZ005-007-008-031100-
VERMONT

CITY           SKY/WX    TMP DP  RH WIND       PRES   REMARKS
ST JOHNSBURY     N/A     64  62  93 MISG      29.88R
MONTPELIER     FOG       61  60  97 NE3       29.94S VSB 1/4
BURLINGTON     MOCLDY    68  65  90 CALM      29.88R
$$

MAZ007-012-024-CTZ003-RIZ002-NYZ038-NYZ072-031100-
SOUTHERN NEW ENGLAND AND NY

CITY           SKY/WX    TMP DP  RH WIND       PRES   REMARKS
BOSTON         CLEAR     72  65  78 SW5       29.83S
WORCESTER      CLEAR     69  63  81 NW5       29.88S
NANTUCKET        N/A    N/A N/A N/A MISG      29.85S
PROVIDENCE     PTCLDY    67  63  87 W3        29.85S
HARTFORD       PTCLDY    64  62  93 NW3       29.85S
ALBANY         PTCLDY    65  62  90 CALM      29.89R
NEW YORK CITY  CLEAR     77  65  66 N3        29.85S
$$

ANZ081-ANZ082-ANZ150-NHZ014-MEZ023>029-031100-
COASTAL MARINE OBSERVATIONS

STATION/POSITION TIME  TEMP    WIND        PRES    WAVE
                       AIR SEA DIR/SP/G            HT/PER
                 (UTC) (F)     (DEG/KT/KT) (MB)    (FT/S)
MOUNT DESERT ROC 1000   65     290/  6/  7 1009.5R
MATINICUS ROCK   1000          360/  3/  3 1009.2R
ISLE OF SHOALS   1000   69     330/  9/ 10 1009.5R
JEFFREYS LEDGE   0903      65                N/A     2/ 4
CASHES LEDGE BUO 0950   66                 1009.3R   2/ 5
GEORGES BANK BUO 0950   70 69  250/  6/  8 1011.7R   2/ 7
$$

.............KEY..............
   WCI - WIND CHILL
   TC  - TEMPERATURE IN CELSIUS
   VSB - VISIBILITY IN MILES
   HX  - HEAT INDEX
   FAIR- INDICATES FEW OR NO CLOUDS BELOW 12,000 FT, WITH NO
         SIGNIFICANT WEATHER AND/OR OBSTRUCTIONS TO VISIBILITY.




USA.gov is the U.S. government's official web portal to all federal, state and local government web resources and services.